AST,Max TemperatureF,Mean TemperatureF,Min TemperatureF,Max Dew PointF,MeanDew PointF,Min DewpointF,Max Humidity, Mean Humidity, Min Humidity, Max Sea Level PressureIn, Mean Sea Level PressureIn, Min Sea Level PressureIn, Max VisibilityMiles, Mean VisibilityMiles, Min VisibilityMiles, Max Wind SpeedMPH, Mean Wind SpeedMPH, Max Gust SpeedMPH,PrecipitationIn, CloudCover, Events, WindDirDegrees
2012-11-1,56,52,47,56,51,48,97,94,79,29.59,29.55,29.50,,,,7,3,,0.08,,,160
2012-11-2,51,43,35,47,42,35,99,94,77,29.53,29.51,29.49,,,,4,1,,0.00,,,175
2012-11-3,54,48,42,46,42,39,97,83,56,29.61,29.56,29.52,,,,8,4,,0.00,,,300
2012-11-4,49,44,39,40,36,31,88,75,49,29.85,29.71,29.61,,,,10,6,22,0.00,,,295
2012-11-5,38,33,28,30,25,21,82,64,42,30.03,29.95,29.86,,,,7,4,,0.00,,,321
2012-11-6,37,28,19,24,20,15,97,73,32,30.27,30.14,30.02,,,,13,3,20,0.00,,,281
2012-11-7,37,26,16,30,20,15,96,74,27,30.30,30.19,30.02,,,,14,4,22,0.12,,,20
2012-11-8,42,37,32,40,36,32,96,93,89,30.00,29.81,29.69,,,,14,10,24,0.79,,,23
2012-11-9,40,35,30,38,34,29,98,89,69,29.92,29.76,29.67,,,,10,6,20,0.08,,,314
2012-11-10,41,32,23,30,23,14,99,69,23,30.44,30.17,29.92,,,,13,5,23,0.00,,,291
2012-11-11,40,30,19,37,28,19,97,85,69,30.57,30.49,30.45,,,,4,1,,0.00,,,80
2012-11-12,66,51,36,53,47,38,97,80,34,30.47,30.40,30.31,,,,8,3,,0.00,,,170
2012-11-13,62,50,39,58,50,35,95,89,80,30.36,30.22,30.10,,,,15,9,25,0.08,,,230
2012-11-14,44,37,29,34,30,28,95,78,50,30.53,30.48,30.38,,,,10,6,18,0.00,,,338
2012-11-15,41,34,28,31,29,26,93,79,57,30.51,30.41,30.30,,,,10,5,,0.00,,,11
2012-11-16,41,34,28,31,28,26,90,74,55,30.35,30.29,30.26,,,,7,4,,0.00,,,334
2012-11-17,38,30,21,27,20,14,94,70,26,30.67,30.55,30.37,,,,9,4,,0.00,,,307
2012-11-18,44,30,17,21,19,15,94,71,22,30.74,30.70,30.67,,,,5,1,,0.00,,,237
2012-11-19,46,32,18,30,23,18,96,81,46,30.67,30.50,30.30,,,,5,1,,0.00,,,249
2012-11-20,48,34,19,28,24,18,98,77,28,30.30,30.20,30.14,,,,6,2,,0.00,,,308
2012-11-21,49,37,25,36,31,25,99,83,42,30.31,30.27,30.22,,,,7,2,,0.00,,,73
2012-11-22,51,36,20,36,28,20,98,84,40,30.27,30.22,30.14,,,,7,1,,0.00,,,248
2012-11-23,55,40,24,45,35,25,100,89,49,30.13,29.94,29.72,,,,8,2,,0.00,,,153
2012-11-24,49,40,31,46,38,31,99,94,80,29.71,29.47,29.34,,,,9,3,,0.08,,,114
2012-11-25,31,28,26,28,18,13,81,58,36,29.61,29.45,29.34,,,,15,10,29,0.00,,,266
2012-11-26,35,28,22,15,12,6,69,50,18,30.14,29.85,29.62,,,,15,9,23,0.00,,,266
2012-11-27,33,22,11,19,14,10,94,71,30,30.34,30.29,30.17,,,,5,2,,0.00,,,273
2012-11-28,33,22,12,17,15,11,93,70,33,30.32,30.19,30.08,,,,7,2,,0.00,,,338
2012-11-29,32,24,15,22,14,7,93,68,24,30.08,30.05,30.01,,,,13,3,21,0.00,,,290
2012-11-30,25,18,10,13,4,1,74,54,23,30.59,30.39,30.11,,,,12,8,22,0.00,,,295